Content
SEND FEEDBACK

Daily
Averages
Monthly
Summary
Mexico

COZUMEL, QUINTANA ROO


Home > North America > Mexico > Quintana Roo
Elevation: 15 feet     Latitude: 20 31N     Longitude: 086 56W

WEATHER
 
SELECT A DAY
Number of Records: 124,821;   Date Range: 1/1/95 - 9/15/14
 
SHARE

PRINT THIS DATA

[ ← Previous Day ]
WEATHER ALMANAC - NOVEMBER 16, 2013
[ Next Day → ]
[ °C ]   °F
Weather ElementAverageHighLow
Temperature74.3 °F82.4 °F (11:42 am)69.8 °F (1:50 am)
Dewpoint72.2 °F75.2 °F (8:41 am)69.8 °F (1:50 am)
Humidity93.8 %100 % (1:50 am)74 % (12:42 pm)
Barometer29.94 in30.03 in (8:41 am)29.90 in (3:43 am)
Wind Speed3.3 mph11.5 mph (1:43 pm)
Weather ElementAverage
Visibility7.5 mi
Wind DirectionENE (56.5 °)

Weather ElementTotal
Precipitation---
Cooling Degree Days11.1 (Base 65)
Growing Degree Days26.1 (Base 50)
Averaged from 23 records on November 16, 2013
WEATHER CONDITIONS BREAKOUT
WIND DIRECTION BREAKOUT
WEATHER BY HOUR - NOVEMBER 16, 2013
[ °C ]   °F
Local TimeTemperatureDewpointHumidityBarometerVisibilityWind DirectionWind SpeedGust SpeedPrecipitationEventsConditions
1:50 AM69.8 °F69.8 °F100 %29.92 in7.0 miCalmMostly Cloudy
2:46 AM69.8 °F69.8 °F100 %29.93 in7.0 miCalmOvercast
3:43 AM71.6 °F71.6 °F100 %29.90 in7.0 miEast (90°)3.5 mphOvercast
4:47 AM69.8 °F69.8 °F100 %29.91 in7.0 miCalmMostly Cloudy
5:52 AM71.6 °F71.6 °F100 %29.92 in7.0 miCalmMostly Cloudy
6:41 AM71.6 °F71.6 °F100 %29.96 in7.0 miCalmMostly Cloudy
7:43 AM73.4 °F73.4 °F100 %29.98 in8.0 miCalmMostly Cloudy
8:41 AM75.2 °F75.2 °F100 %30.03 in8.0 miESE (110°)4.6 mphOvercast
9:44 AM78.8 °F75.2 °F89 %29.99 in8.0 miESE (110°)9.2 mphMostly Cloudy
10:40 AM80.6 °F75.2 °F84 %29.98 in8.0 miESE (120°)9.2 mphMostly Cloudy
11:42 AM82.4 °F75.2 °F79 %29.94 in8.0 miSE (130°)8.1 mphMostly Cloudy
12:42 PM82.4 °F73.4 °F74 %29.93 in8.0 miSE (130°)6.9 mphMostly Cloudy
1:43 PM82.4 °F73.4 °F74 %29.90 in8.0 miESE (120°)11.5 mphMostly Cloudy
2:44 PM82.4 °F73.4 °F74 %29.93 in8.0 miSE (130°)8.1 mphMostly Cloudy
3:46 PM78.8 °F75.2 °F89 %29.90 in8.0 miSE (130°)5.8 mphMostly Cloudy
4:53 PM75.2 °F73.4 °F94 %29.91 in8.0 miESE (110°)4.6 mphMostly Cloudy
5:40 PM73.4 °F73.4 °F100 %29.91 in7.0 miCalmScattered Clouds
6:43 PM71.6 °F71.6 °F100 %29.93 in8.0 miCalmScattered Clouds
7:43 PM69.8 °F69.8 °F100 %29.95 in7.0 miESE (120°)3.5 mphScattered Clouds
8:43 PM69.8 °F69.8 °F100 %29.99 in7.0 miCalmScattered Clouds
9:40 PM69.8 °F69.8 °F100 %29.97 in7.0 miCalmScattered Clouds
10:41 PM69.8 °F69.8 °F100 %29.97 in7.0 miCalmScattered Clouds
11:42 PM69.8 °F69.8 °F100 %29.96 in7.0 miCalmPartly Cloudy
Hourly data recorded from MMCZ, located miles away from Cozumel, Quintana Roo







STORIES FROM OUR PARTNERS